* Astronomy

Members Login
Username 
 
Password 
    Remember Me  
Post Info TOPIC: Asteroid 2015 DU180


L

Posts: 131433
Date:
RE: Asteroid 2015 DU180
Permalink  
 


Orbital elements:
2015 DU180                                          PHA, Earth MOID = 0.0080 AU
Epoch 2017 Sept. 4.0 TT = JDT 2458000.5                 MPC
M   2.05990              (2000.0)            P               Q
n   0.36867287     Peri.  315.33409     +0.99021600     -0.12266837
a   1.9262320      Node    51.82781     +0.13947496     +0.88494010
e   0.9221065      Incl.    4.85375     -0.00436007     +0.44925883
P   2.67           H   20.8           G   0.15           U   4

MPEC 2017-M67



__________________


L

Posts: 131433
Date:
Permalink  
 

Orbital elements:
2015 DU180                                          PHA, Earth MOID = 0.0082 AU
Epoch 2014 Dec. 9.0 TT = JDT 2457000.5                  MPC
M 354.28717              (2000.0)            P               Q
n   0.35787820     Peri.  315.15841     +0.99073269     -0.11856425
a   1.9647738      Node    51.76543     +0.13569314     +0.88556113
e   0.9241597      Incl.    4.83946     -0.00600951     +0.44913695
P   2.75           H   20.9           G   0.15           U   9

MPEC 2015 - D69



__________________
Page 1 of 1  sorted by
 
Quick Reply

Please log in to post quick replies.



Create your own FREE Forum
Report Abuse
Powered by ActiveBoard